| time (UTC) | temp F | wind direction | speed MPH | gust MPH | rain 1hr in | rain 24hr in | rain mn in | humidity % | barometer mb |
| 20260505034558 | 52 | 161 | 0.0 | 3.0 | 0.00 | 0.00 | 0.00 | 8 | 1010.4 |
| 20260505033112 | 52 | 158 | 0.0 | 2.0 | 0.00 | 0.00 | 0.00 | 15 | 1010.3 |
| 20260505031550 | 53 | 158 | 1.0 | 3.0 | 0.00 | 0.00 | 0.00 | 20 | 1010.3 |
| 20260505030045 | 53 | 148 | 1.0 | 3.0 | 0.00 | 0.00 | 0.00 | 25 | 1010.5 |
| 20260505024541 | 53 | 184 | 0.0 | 3.0 | 0.00 | 0.00 | 0.00 | 29 | 1010.5 |
| 20260505023046 | 54 | 183 | 1.0 | 4.0 | 0.00 | 0.00 | 0.00 | 34 | 1010.5 |
| 20260505021532 | 54 | 230 | 1.0 | 3.0 | 0.00 | 0.00 | 0.00 | 38 | 1010.5 |
| 20260505020029 | 55 | 231 | 1.0 | 3.0 | 0.00 | 0.00 | 0.00 | 42 | 1010.6 |
| 20260505014523 | 55 | 215 | 2.0 | 5.0 | 0.00 | 0.00 | 0.00 | 45 | 1010.5 |
| 20260505013018 | 56 | 217 | 1.0 | 4.0 | 0.00 | 0.00 | 0.00 | 49 | 1010.3 |
| 20260505011519 | 56 | 178 | 1.0 | 8.0 | 0.00 | 0.00 | 0.00 | 52 | 1010.1 |
| 20260505010010 | 57 | 212 | 2.0 | 7.0 | 0.00 | 0.00 | 0.00 | 53 | 1009.9 |
| 20260505004518 | 57 | 216 | 1.0 | 5.0 | 0.00 | 0.00 | 0.00 | 53 | 1009.4 |
| 20260505003001 | 58 | 159 | 3.0 | 8.0 | 0.00 | 0.00 | 0.00 | 53 | 1009.1 |
| 20260505001558 | 58 | 167 | 3.0 | 8.0 | 0.00 | 0.00 | 0.00 | 52 | 1008.9 |
| 20260505000058 | 59 | 196 | 1.0 | 6.0 | 0.00 | 0.00 | 0.00 | 52 | 1008.7 |
| 20260504234613 | 60 | 215 | 2.0 | 6.0 | 0.00 | 0.00 | 0.00 | 50 | 1008.4 |
| 20260504233048 | 59 | 209 | 2.0 | 5.0 | 0.00 | 0.00 | 0.00 | 51 | 1008.2 |
| 20260504231550 | 61 | 163 | 2.0 | 7.0 | 0.00 | 0.00 | 0.00 | 50 | 1008.0 |
| 20260504230036 | 63 | 202 | 3.0 | 10.0 | 0.00 | 0.00 | 0.00 | 43 | 1007.8 |
| 20260504224531 | 64 | 167 | 4.0 | 9.0 | 0.00 | 0.00 | 0.00 | 43 | 1007.6 |
| 20260504223026 | 64 | 227 | 2.0 | 10.0 | 0.00 | 0.00 | 0.00 | 42 | 1007.5 |
| 20260504221524 | 65 | 221 | 5.0 | 12.0 | 0.00 | 0.00 | 0.00 | 42 | 1007.3 |
| 20260504220018 | 65 | 217 | 4.0 | 13.0 | 0.00 | 0.00 | 0.00 | 42 | 1007.3 |
| 20260504214517 | 66 | 207 | 6.0 | 16.0 | 0.00 | 0.00 | 0.00 | 41 | 1007.2 |
| 20260504213009 | 66 | 223 | 4.0 | 11.0 | 0.00 | 0.00 | 0.00 | 40 | 1007.2 |
| 20260504211504 | 67 | 185 | 3.0 | 11.0 | 0.00 | 0.00 | 0.00 | 39 | 1007.0 |
| 20260504210106 | 67 | 211 | 3.0 | 11.0 | 0.00 | 0.00 | 0.00 | 39 | 1006.9 |
| 20260504204636 | 67 | 245 | 3.0 | 10.0 | 0.00 | 0.00 | 0.00 | 37 | 1007.0 |
| 20260504203052 | 68 | 235 | 5.0 | 9.0 | 0.00 | 0.00 | 0.00 | 36 | 1006.9 |
| 20260504201546 | 68 | 222 | 3.0 | 12.0 | 0.00 | 0.00 | 0.00 | 36 | 1006.9 |
| 20260504200048 | 68 | 217 | 3.0 | 19.0 | 0.00 | 0.00 | 0.00 | 32 | 1006.9 |
| 20260504194548 | 69 | 268 | 4.0 | 10.0 | 0.00 | 0.00 | 0.00 | 32 | 1007.0 |
| 20260504193034 | 68 | 230 | 4.0 | 10.0 | 0.00 | 0.00 | 0.00 | 31 | 1007.0 |
| 20260504191530 | 68 | 228 | 4.0 | 15.0 | 0.00 | 0.00 | 0.00 | 31 | 1006.7 |
| 20260504190026 | 68 | 259 | 4.0 | 17.0 | 0.00 | 0.00 | 0.00 | 32 | 1007.0 |
| 20260504184521 | 68 | 270 | 5.0 | 12.0 | 0.00 | 0.00 | 0.00 | 31 | 1007.2 |
| 20260504183018 | 68 | 200 | 2.0 | 12.0 | 0.00 | 0.00 | 0.00 | 31 | 1007.5 |
| 20260504181513 | 68 | 212 | 4.0 | 10.0 | 0.00 | 0.00 | 0.00 | 30 | 1007.5 |
| 20260504180008 | 67 | 248 | 5.0 | 12.0 | 0.00 | 0.00 | 0.00 | 30 | 1007.5 |
| 20260504174504 | 68 | 236 | 3.0 | 15.0 | 0.00 | 0.00 | 0.00 | 32 | 1007.7 |
| 20260504173101 | 68 | 172 | 2.0 | 8.0 | 0.00 | 0.00 | 0.00 | 34 | 1007.5 |
| 20260504171555 | 67 | 223 | 5.0 | 9.0 | 0.00 | 0.00 | 0.00 | 31 | 1007.7 |
| 20260504081526 | 43 | 306 | 0.0 | 1.0 | 0.00 | 0.00 | 0.00 | 54 | 1010.0 |
| 20260504070105 | 41 | 306 | 0.0 | 0.0 | 0.00 | 0.00 | 0.00 | 37 | 1010.0 |
| 20260504050024 | 39 | 306 | 0.0 | 0.0 | 0.00 | 0.00 | 0.00 | 40 | 1010.0 |
| 20260504044524 | 39 | 306 | 0.0 | 0.0 | 0.00 | 0.00 | 0.00 | 42 | 1010.1 |
| 20260504043017 | 38 | 306 | 0.0 | 0.0 | 0.00 | 0.00 | 0.00 | 39 | 1010.0 |
| 20260504041510 | 38 | 306 | 0.0 | 1.0 | 0.00 | 0.00 | 0.00 | 19 | 1010.1 |
| 20260504040007 | 37 | 306 | 0.0 | 1.0 | 0.00 | 0.00 | 0.00 | 13 | 1009.8 |